Location: Castro Valley
(37.6940°N, 122.0850°W)
Time: 04:59:55
(UTC-07:00)

PANSAT - Visible Passes

Search period start: 21 October 2014 00:00
Search period end: 31 October 2014 00:00
Orbit: 490 x 496 km, 28.5° (Epoch: 19 October)

Date Brightness Start Highest point End Pass type
(mag) Time Alt. Az. Time Alt. Az. Time Alt. Az.
28 Oct 9.9 06:39:03 10° SW 06:41:41 18° S 06:44:20 10° SE visible
29 Oct 9.8 06:13:41 11° SW 06:16:08 18° S 06:18:49 10° SE visible
30 Oct 9.6 05:49:44 17° S 05:50:34 19° S 05:53:18 10° SE visible
